This is the latest recevied weather packets stored in our database for station/object KB1RMA-13. If no packets are shown the sender has not sent any weather packets the latest 10 day(s).
| Time | Temp. | Humidity | Pressure | Rain* | Wind** | Luminosity | Snow |
|---|---|---|---|---|---|---|---|
| 1777496557 | 7.78° C | 93% | 1014.8 hPa | 0 mm | - | 84 W/m² | - |
| 1777496253 | 7.22° C | 93% | 1014.7 hPa | 0 mm | - | 159 W/m² | - |
| 1777495949 | 7.78° C | 93% | 1015 hPa | 0 mm | - | 132 W/m² | - |
| 1777495645 | 7.78° C | 93% | 1015 hPa | 0 mm | - | 155 W/m² | - |
| 1777495341 | 7.22° C | 93% | 1015.3 hPa | 0 mm | - | 99 W/m² | - |
| 1777495038 | 7.78° C | 92% | 1015.5 hPa | 0 mm | - | 100 W/m² | - |
| 1777494736 | 7.78° C | 92% | 1015.5 hPa | 0 mm | - | 117 W/m² | - |
| 1777494433 | 7.78° C | 92% | 1015.4 hPa | 0 mm | - | 161 W/m² | - |
| 1777494129 | 7.78° C | 92% | 1015.1 hPa | 0 mm | - | 111 W/m² | - |
| 1777493826 | 7.78° C | 92% | 1015.2 hPa | 0 mm | - | 249 W/m² | - |
| 1777493525 | 7.78° C | 92% | 1015.4 hPa | 0 mm | - | 126 W/m² | - |
| 1777493221 | 7.78° C | 92% | 1015.3 hPa | 0 mm | - | 148 W/m² | - |
| 1777492918 | 7.78° C | 92% | 1015.5 hPa | 0 mm | - | 334 W/m² | - |
| 1777492614 | 7.78° C | 92% | 1015.5 hPa | 0 mm | - | 268 W/m² | - |
| 1777492310 | 7.78° C | 91% | 1015.6 hPa | 0 mm | - | 203 W/m² | - |
| 1777492007 | 8.33° C | 90% | 1015.9 hPa | 0 mm | - | 343 W/m² | - |
| 1777491703 | 7.78° C | 91% | 1015.7 hPa | 0 mm | - | 256 W/m² | - |
| 1777491401 | 7.78° C | 91% | 1016 hPa | 0 mm | - | 286 W/m² | - |
| 1777491098 | 7.78° C | 91% | 1016.2 hPa | 0 mm | - | 258 W/m² | - |
| 1777490793 | 7.78° C | 90% | 1016.2 hPa | 0 mm | - | 163 W/m² | - |
| 1777490490 | 7.78° C | 91% | 1016.3 hPa | 0 mm | - | 207 W/m² | - |
| 1777490186 | 7.78° C | 91% | 1016.4 hPa | 0 mm | - | 207 W/m² | - |
| 1777489884 | 7.78° C | 91% | 1016.3 hPa | 0 mm | - | 207 W/m² | - |
| 1777489582 | 7.78° C | 93% | 1016.5 hPa | 0 mm | - | 358 W/m² | - |
| 1777489278 | 7.78° C | 93% | 1016.6 hPa | 0 mm | - | 358 W/m² | - |
* Rain latest hour (hover to see other rain measurements)
** Current wind speed in m/s (hover to see current wind gust speed)